PRIVATE WETTERSTATION BILLIGHEIM-ALLFELD                       ZURCK
Wetterdaten: Freitag, 27.06.2014
Datum Zeit Temp. A. Temp. A. min Temp. A. max Feuchte A. Luftdruck Regen Wind Richtung Richtung Sonnenschein ET Solar Taupunkt Windchill Windben Empfang
27.06.2014 00:00 12,4 C 12,4 C 12,6 C 70 % 1014,2 hPa 0,0 l/m 0,0 km/h (0 Bft) N 360 0 min 0,025 mm 0 W/m 7,1 C 12,4 C 1,6 km/h (1 Bft) 100 %
27.06.2014 00:10 12,0 C 12,0 C 12,4 C 71 % 1014,3 hPa 0,0 l/m 0,0 km/h (0 Bft) N 360 0 min 0,000 mm 0 W/m 6,9 C 12,0 C 1,6 km/h (1 Bft) 100 %
27.06.2014 00:20 11,7 C 11,7 C 11,9 C 74 % 1014,5 hPa 0,0 l/m 0,0 km/h (0 Bft) N 360 0 min 0,000 mm 0 W/m 7,2 C 11,7 C 1,6 km/h (1 Bft) 100 %
27.06.2014 00:30 11,6 C 11,6 C 11,7 C 75 % 1014,5 hPa 0,0 l/m 0,0 km/h (0 Bft) N 360 0 min 0,000 mm 0 W/m 7,3 C 11,6 C 1,6 km/h (1 Bft) 100 %
27.06.2014 00:40 11,4 C 11,4 C 11,6 C 75 % 1014,5 hPa 0,0 l/m 0,0 km/h (0 Bft) N 360 0 min 0,000 mm 0 W/m 7,1 C 11,4 C 1,6 km/h (1 Bft) 100 %
27.06.2014 00:50 11,3 C 11,3 C 11,4 C 75 % 1014,5 hPa 0,0 l/m 0,0 km/h (0 Bft) N 360 0 min 0,000 mm 0 W/m 7,0 C 11,3 C 1,6 km/h (1 Bft) 100 %
27.06.2014 01:00 11,2 C 11,2 C 11,3 C 76 % 1014,5 hPa 0,0 l/m 0,0 km/h (0 Bft) N 360 0 min 0,025 mm 0 W/m 7,1 C 11,2 C 1,6 km/h (1 Bft) 100 %
27.06.2014 01:10 11,1 C 11,1 C 11,2 C 76 % 1014,6 hPa 0,0 l/m 0,0 km/h (0 Bft) N 360 0 min 0,000 mm 0 W/m 7,0 C 11,1 C 3,2 km/h (1 Bft) 89 %
27.06.2014 01:20 10,9 C 10,9 C 11,1 C 76 % 1014,4 hPa 0,0 l/m 0,0 km/h (0 Bft) N 360 0 min 0,000 mm 0 W/m 6,8 C 10,9 C 4,8 km/h (1 Bft) 100 %
27.06.2014 01:30 10,7 C 10,7 C 10,9 C 77 % 1014,3 hPa 0,0 l/m 0,0 km/h (0 Bft) N-NO 22 0 min 0,000 mm 0 W/m 6,8 C 10,7 C 4,8 km/h (1 Bft) 100 %
27.06.2014 01:40 10,6 C 10,6 C 10,7 C 78 % 1014,3 hPa 0,0 l/m 0,0 km/h (0 Bft) N-NO 22 0 min 0,000 mm 0 W/m 6,9 C 10,6 C 1,6 km/h (1 Bft) 100 %
27.06.2014 01:50 10,3 C 10,3 C 10,6 C 78 % 1014,3 hPa 0,0 l/m 0,0 km/h (0 Bft) N-NO 22 0 min 0,000 mm 0 W/m 6,6 C 10,3 C 1,6 km/h (1 Bft) 100 %
27.06.2014 02:00 10,2 C 10,2 C 10,3 C 78 % 1014,3 hPa 0,0 l/m 0,0 km/h (0 Bft) N-NO 22 0 min 0,025 mm 0 W/m 6,5 C 10,2 C 1,6 km/h (1 Bft) 100 %
27.06.2014 02:10 10,0 C 10,0 C 10,2 C 79 % 1014,3 hPa 0,0 l/m 0,0 km/h (0 Bft) N-NO 22 0 min 0,000 mm 0 W/m 6,5 C 10,0 C 1,6 km/h (1 Bft) 100 %
27.06.2014 02:20 9,8 C 9,7 C 10,0 C 80 % 1014,3 hPa 0,0 l/m 0,0 km/h (0 Bft) N-NO 22 0 min 0,000 mm 0 W/m 6,5 C 9,8 C 1,6 km/h (1 Bft) 100 %
27.06.2014 02:30 9,6 C 9,6 C 9,7 C 80 % 1014,3 hPa 0,0 l/m 0,0 km/h (0 Bft) N 0 0 min 0,000 mm 0 W/m 6,3 C 9,6 C 0,0 km/h (0 Bft) 100 %
27.06.2014 02:40 9,4 C 9,4 C 9,6 C 81 % 1014,2 hPa 0,0 l/m 0,0 km/h (0 Bft) N-NO 22 0 min 0,000 mm 0 W/m 6,3 C 9,4 C 1,6 km/h (1 Bft) 100 %
27.06.2014 02:50 9,3 C 9,3 C 9,4 C 81 % 1014,3 hPa 0,0 l/m 0,0 km/h (0 Bft) N-NO 22 0 min 0,000 mm 0 W/m 6,2 C 9,3 C 1,6 km/h (1 Bft) 100 %
27.06.2014 03:00 9,1 C 9,1 C 9,3 C 82 % 1014,2 hPa 0,0 l/m 0,0 km/h (0 Bft) N-NO 22 0 min 0,025 mm 0 W/m 6,2 C 9,1 C 3,2 km/h (1 Bft) 100 %
27.06.2014 03:10 8,9 C 8,9 C 9,1 C 82 % 1014,3 hPa 0,0 l/m 0,0 km/h (0 Bft) N-NO 22 0 min 0,000 mm 0 W/m 6,0 C 8,9 C 1,6 km/h (1 Bft) 100 %
27.06.2014 03:20 8,8 C 8,8 C 8,9 C 83 % 1014,2 hPa 0,0 l/m 0,0 km/h (0 Bft) N-NO 22 0 min 0,000 mm 0 W/m 6,1 C 8,8 C 4,8 km/h (1 Bft) 100 %
27.06.2014 03:30 8,6 C 8,6 C 8,8 C 83 % 1014,2 hPa 0,0 l/m 0,0 km/h (0 Bft) N-NO 22 0 min 0,000 mm 0 W/m 5,9 C 8,6 C 1,6 km/h (1 Bft) 100 %
27.06.2014 03:40 8,5 C 8,5 C 8,6 C 84 % 1014,2 hPa 0,0 l/m 0,0 km/h (0 Bft) N-NO 22 0 min 0,000 mm 0 W/m 6,0 C 8,5 C 1,6 km/h (1 Bft) 100 %
27.06.2014 03:50 8,4 C 8,4 C 8,5 C 84 % 1014,2 hPa 0,0 l/m 0,0 km/h (0 Bft) N-NO 22 0 min 0,000 mm 0 W/m 5,9 C 8,4 C 1,6 km/h (1 Bft) 100 %
27.06.2014 04:00 8,3 C 8,3 C 8,4 C 84 % 1014,2 hPa 0,0 l/m 0,0 km/h (0 Bft) N-NO 22 0 min 0,000 mm 0 W/m 5,8 C 8,3 C 1,6 km/h (1 Bft) 89 %
27.06.2014 04:10 8,1 C 8,1 C 8,3 C 84 % 1014,3 hPa 0,0 l/m 0,0 km/h (0 Bft) N 0 0 min 0,000 mm 0 W/m 5,6 C 8,1 C 0,0 km/h (0 Bft) 100 %
27.06.2014 04:20 8,1 C 8,1 C 8,1 C 85 % 1014,3 hPa 0,0 l/m 0,0 km/h (0 Bft) N-NO 22 0 min 0,000 mm 0 W/m 5,7 C 8,1 C 3,2 km/h (1 Bft) 100 %
27.06.2014 04:30 7,9 C 7,9 C 8,1 C 85 % 1014,3 hPa 0,0 l/m 0,0 km/h (0 Bft) N 0 0 min 0,000 mm 0 W/m 5,5 C 7,9 C 0,0 km/h (0 Bft) 100 %
27.06.2014 04:40 7,8 C 7,8 C 7,9 C 85 % 1014,3 hPa 0,0 l/m 0,0 km/h (0 Bft) N-NO 22 0 min 0,000 mm 0 W/m 5,4 C 7,8 C 3,2 km/h (1 Bft) 100 %
27.06.2014 04:50 7,8 C 7,8 C 7,8 C 85 % 1014,4 hPa 0,0 l/m 0,0 km/h (0 Bft) N-NO 22 0 min 0,000 mm 0 W/m 5,4 C 7,8 C 1,6 km/h (1 Bft) 100 %
27.06.2014 05:00 7,7 C 7,7 C 7,8 C 85 % 1014,4 hPa 0,0 l/m 0,0 km/h (0 Bft) N-NO 22 0 min 0,000 mm 0 W/m 5,3 C 7,7 C 1,6 km/h (1 Bft) 100 %
27.06.2014 05:10 7,6 C 7,6 C 7,7 C 85 % 1014,6 hPa 0,0 l/m 0,0 km/h (0 Bft) N-NO 22 0 min 0,000 mm 0 W/m 5,2 C 7,6 C 3,2 km/h (1 Bft) 100 %
27.06.2014 05:20 7,6 C 7,6 C 7,6 C 85 % 1014,6 hPa 0,0 l/m 0,0 km/h (0 Bft) N-NO 22 0 min 0,000 mm 0 W/m 5,2 C 7,6 C 1,6 km/h (1 Bft) 100 %
27.06.2014 05:30 7,5 C 7,5 C 7,6 C 85 % 1014,7 hPa 0,0 l/m 0,0 km/h (0 Bft) N-NO 22 0 min 0,000 mm 5 W/m 5,1 C 7,5 C 1,6 km/h (1 Bft) 100 %
27.06.2014 05:40 7,4 C 7,4 C 7,5 C 86 % 1014,7 hPa 0,0 l/m 0,0 km/h (0 Bft) N 0 0 min 0,000 mm 7 W/m 5,2 C 7,4 C 0,0 km/h (0 Bft) 100 %
27.06.2014 05:50 7,5 C 7,4 C 7,5 C 86 % 1014,8 hPa 0,0 l/m 0,0 km/h (0 Bft) N-NO 22 0 min 0,000 mm 12 W/m 5,3 C 7,5 C 1,6 km/h (1 Bft) 100 %
27.06.2014 06:00 7,6 C 7,5 C 7,6 C 86 % 1014,8 hPa 0,0 l/m 0,0 km/h (0 Bft) N 0 0 min 0,000 mm 12 W/m 5,4 C 7,6 C 0,0 km/h (0 Bft) 100 %
27.06.2014 06:10 7,6 C 7,6 C 7,6 C 86 % 1014,9 hPa 0,0 l/m 0,0 km/h (0 Bft) N-NO 22 0 min 0,000 mm 16 W/m 5,4 C 7,6 C 1,6 km/h (1 Bft) 100 %
27.06.2014 06:20 7,7 C 7,6 C 7,7 C 86 % 1015,0 hPa 0,0 l/m 0,0 km/h (0 Bft) N 0 0 min 0,000 mm 21 W/m 5,5 C 7,7 C 0,0 km/h (0 Bft) 90 %
27.06.2014 06:30 7,7 C 7,6 C 7,7 C 86 % 1015,0 hPa 0,0 l/m 0,0 km/h (0 Bft) N-NO 22 0 min 0,000 mm 42 W/m 5,5 C 7,7 C 1,6 km/h (1 Bft) 100 %
27.06.2014 06:40 7,9 C 7,7 C 7,9 C 86 % 1015,1 hPa 0,0 l/m 0,0 km/h (0 Bft) N-NO 22 0 min 0,000 mm 42 W/m 5,7 C 7,9 C 1,6 km/h (1 Bft) 100 %
27.06.2014 06:50 8,1 C 7,9 C 8,1 C 86 % 1015,2 hPa 0,0 l/m 0,0 km/h (0 Bft) N-NO 22 0 min 0,000 mm 42 W/m 5,9 C 8,1 C 1,6 km/h (1 Bft) 100 %
27.06.2014 07:00 8,4 C 8,1 C 8,4 C 86 % 1015,2 hPa 0,0 l/m 0,0 km/h (0 Bft) N-NO 22 0 min 0,025 mm 42 W/m 6,2 C 8,4 C 1,6 km/h (1 Bft) 100 %
27.06.2014 07:10 8,6 C 8,3 C 8,6 C 86 % 1015,1 hPa 0,0 l/m 0,0 km/h (0 Bft) N-NO 22 0 min 0,000 mm 33 W/m 6,4 C 8,6 C 1,6 km/h (1 Bft) 100 %
27.06.2014 07:20 8,9 C 8,6 C 8,9 C 86 % 1015,2 hPa 0,0 l/m 0,0 km/h (0 Bft) N-NO 22 0 min 0,000 mm 67 W/m 6,7 C 8,9 C 3,2 km/h (1 Bft) 100 %
27.06.2014 07:30 9,3 C 8,9 C 9,3 C 86 % 1015,2 hPa 0,0 l/m 0,0 km/h (0 Bft) N-NO 22 0 min 0,000 mm 97 W/m 7,1 C 9,3 C 1,6 km/h (1 Bft) 100 %
27.06.2014 07:40 9,9 C 9,3 C 9,9 C 86 % 1015,2 hPa 0,0 l/m 0,0 km/h (0 Bft) N 0 0 min 0,000 mm 97 W/m 7,7 C 9,9 C 0,0 km/h (0 Bft) 100 %
27.06.2014 07:50 10,6 C 9,9 C 10,6 C 85 % 1015,1 hPa 0,0 l/m 0,0 km/h (0 Bft) N-NO 22 0 min 0,000 mm 114 W/m 8,2 C 10,6 C 1,6 km/h (1 Bft) 100 %
27.06.2014 08:00 11,3 C 10,6 C 11,3 C 83 % 1015,1 hPa 0,0 l/m 0,0 km/h (0 Bft) N-NO 22 10 min 0,051 mm 167 W/m 8,5 C 11,3 C 1,6 km/h (1 Bft) 99 %
27.06.2014 08:10 12,2 C 11,3 C 12,2 C 80 % 1015,1 hPa 0,0 l/m 0,0 km/h (0 Bft) N 0 10 min 0,000 mm 167 W/m 8,9 C 12,2 C 0,0 km/h (0 Bft) 100 %
27.06.2014 08:20 12,8 C 12,2 C 12,8 C 78 % 1015,1 hPa 0,0 l/m 0,0 km/h (0 Bft) N-NO 22 10 min 0,000 mm 369 W/m 9,1 C 12,8 C 1,6 km/h (1 Bft) 100 %
27.06.2014 08:30 14,1 C 12,8 C 14,1 C 76 % 1015,2 hPa 0,0 l/m 0,0 km/h (0 Bft) N-NO 22 10 min 0,000 mm 394 W/m 9,9 C 14,1 C 1,6 km/h (1 Bft) 100 %
27.06.2014 08:40 15,4 C 14,1 C 15,4 C 69 % 1015,2 hPa 0,0 l/m 0,0 km/h (0 Bft) N-NO 22 10 min 0,000 mm 425 W/m 9,7 C 15,4 C 4,8 km/h (1 Bft) 100 %
27.06.2014 08:50 16,6 C 14,1 C 16,6 C 66 % 1015,3 hPa 0,0 l/m 0,1 km/h (0 Bft) SW 216 10 min 0,000 mm 455 W/m 10,2 C 16,6 C 1,6 km/h (1 Bft) 100 %
27.06.2014 09:00 17,6 C 16,6 C 17,6 C 58 % 1015,2 hPa 0,0 l/m 0,1 km/h (0 Bft) SW 214 10 min 0,154 mm 485 W/m 9,2 C 17,6 C 3,2 km/h (1 Bft) 100 %
27.06.2014 09:10 18,1 C 17,6 C 18,1 C 56 % 1015,2 hPa 0,0 l/m 0,7 km/h (0 Bft) S-SO 165 10 min 0,000 mm 508 W/m 9,2 C 18,1 C 6,4 km/h (2 Bft) 91 %
27.06.2014 09:20 18,8 C 18,1 C 18,8 C 56 % 1015,2 hPa 0,0 l/m 0,4 km/h (0 Bft) S-SO 156 10 min 0,000 mm 531 W/m 9,8 C 18,8 C 4,8 km/h (1 Bft) 100 %
27.06.2014 09:30 19,6 C 18,8 C 19,6 C 53 % 1015,1 hPa 0,0 l/m 0,4 km/h (0 Bft) S 174 10 min 0,000 mm 559 W/m 9,8 C 19,6 C 4,8 km/h (1 Bft) 100 %
27.06.2014 09:40 20,6 C 19,6 C 20,6 C 49 % 1015,2 hPa 0,0 l/m 0,8 km/h (0 Bft) S-SW 194 10 min 0,000 mm 578 W/m 9,5 C 20,6 C 6,4 km/h (2 Bft) 100 %
27.06.2014 09:50 21,1 C 20,6 C 21,1 C 47 % 1015,2 hPa 0,0 l/m 2,0 km/h (1 Bft) S-SO 153 10 min 0,000 mm 603 W/m 9,3 C 21,1 C 9,7 km/h (2 Bft) 100 %
27.06.2014 10:00 20,9 C 20,9 C 21,2 C 48 % 1015,1 hPa 0,0 l/m 2,8 km/h (1 Bft) S-SW 198 10 min 0,330 mm 629 W/m 9,5 C 20,9 C 9,7 km/h (2 Bft) 100 %
27.06.2014 10:10 20,8 C 20,7 C 20,9 C 50 % 1015,2 hPa 0,0 l/m 3,4 km/h (1 Bft) S-SW 211 10 min 0,000 mm 638 W/m 10,0 C 20,8 C 11,3 km/h (2 Bft) 100 %
27.06.2014 10:20 21,5 C 20,8 C 21,5 C 46 % 1015,2 hPa 0,0 l/m 3,0 km/h (1 Bft) SO 144 10 min 0,000 mm 670 W/m 9,4 C 21,5 C 14,5 km/h (3 Bft) 100 %
27.06.2014 10:30 21,8 C 21,4 C 21,8 C 48 % 1015,2 hPa 0,0 l/m 3,1 km/h (1 Bft) S-SW 205 10 min 0,000 mm 691 W/m 10,3 C 21,8 C 14,5 km/h (3 Bft) 100 %
27.06.2014 10:40 22,0 C 21,8 C 22,0 C 48 % 1015,2 hPa 0,0 l/m 1,6 km/h (1 Bft) SW 221 10 min 0,000 mm 733 W/m 10,5 C 22,0 C 14,5 km/h (3 Bft) 100 %
27.06.2014 10:50 22,2 C 22,0 C 22,2 C 45 % 1015,1 hPa 0,0 l/m 3,8 km/h (1 Bft) S-SW 205 10 min 0,000 mm 735 W/m 9,7 C 22,2 C 14,5 km/h (3 Bft) 100 %
27.06.2014 11:00 22,9 C 22,2 C 22,9 C 48 % 1015,1 hPa 0,0 l/m 1,1 km/h (1 Bft) S 189 10 min 0,432 mm 749 W/m 11,3 C 22,9 C 6,4 km/h (2 Bft) 100 %
27.06.2014 11:10 23,3 C 22,9 C 23,3 C 41 % 1015,2 hPa 0,0 l/m 1,5 km/h (1 Bft) S-SW 203 10 min 0,000 mm 765 W/m 9,3 C 23,3 C 11,3 km/h (2 Bft) 100 %
27.06.2014 11:20 23,7 C 23,3 C 23,7 C 41 % 1015,2 hPa 0,0 l/m 2,2 km/h (1 Bft) S-SO 154 10 min 0,000 mm 773 W/m 9,7 C 23,7 C 11,3 km/h (2 Bft) 100 %
27.06.2014 11:30 23,6 C 23,4 C 23,7 C 44 % 1015,1 hPa 0,0 l/m 4,8 km/h (1 Bft) SW 227 10 min 0,000 mm 796 W/m 10,6 C 23,6 C 17,7 km/h (3 Bft) 100 %
27.06.2014 11:40 24,1 C 23,6 C 24,1 C 42 % 1015,0 hPa 0,0 l/m 5,8 km/h (2 Bft) SO 142 10 min 0,000 mm 795 W/m 10,4 C 24,1 C 14,5 km/h (3 Bft) 100 %
27.06.2014 11:50 24,3 C 24,1 C 24,3 C 41 % 1015,1 hPa 0,0 l/m 5,2 km/h (1 Bft) SW 229 10 min 0,000 mm 824 W/m 10,2 C 24,3 C 19,3 km/h (3 Bft) 100 %
27.06.2014 12:00 24,3 C 24,2 C 24,3 C 41 % 1015,0 hPa 0,0 l/m 3,8 km/h (1 Bft) SW 217 10 min 0,508 mm 868 W/m 10,2 C 24,3 C 14,5 km/h (3 Bft) 100 %
27.06.2014 12:10 24,8 C 24,3 C 24,8 C 39 % 1014,9 hPa 0,0 l/m 5,0 km/h (1 Bft) W 275 10 min 0,000 mm 744 W/m 9,9 C 24,8 C 17,7 km/h (3 Bft) 100 %
27.06.2014 12:20 25,1 C 24,8 C 25,1 C 38 % 1014,9 hPa 0,0 l/m 4,8 km/h (1 Bft) W-SW 250 10 min 0,000 mm 772 W/m 9,8 C 25,1 C 17,7 km/h (3 Bft) 100 %
27.06.2014 12:30 25,4 C 25,1 C 25,4 C 37 % 1014,8 hPa 0,0 l/m 6,2 km/h (2 Bft) S-SW 211 10 min 0,000 mm 640 W/m 9,6 C 25,4 C 20,9 km/h (4 Bft) 100 %
27.06.2014 12:40 24,9 C 24,9 C 25,4 C 36 % 1014,8 hPa 0,0 l/m 5,6 km/h (1 Bft) S-SW 199 10 min 0,000 mm 473 W/m 8,8 C 24,9 C 16,1 km/h (3 Bft) 100 %
27.06.2014 12:50 24,7 C 24,6 C 24,9 C 38 % 1014,7 hPa 0,0 l/m 6,6 km/h (2 Bft) S-SW 213 10 min 0,000 mm 712 W/m 9,4 C 24,7 C 25,7 km/h (4 Bft) 100 %
27.06.2014 13:00 25,1 C 24,7 C 25,1 C 39 % 1014,7 hPa 0,0 l/m 5,5 km/h (1 Bft) S-SW 198 10 min 0,508 mm 457 W/m 10,2 C 25,1 C 22,5 km/h (4 Bft) 100 %
27.06.2014 13:10 24,7 C 24,7 C 25,1 C 39 % 1014,7 hPa 0,0 l/m 4,5 km/h (1 Bft) S-SW 208 10 min 0,000 mm 448 W/m 9,8 C 24,7 C 16,1 km/h (3 Bft) 100 %
27.06.2014 13:20 24,5 C 24,4 C 24,7 C 39 % 1014,7 hPa 0,0 l/m 8,8 km/h (2 Bft) W-SW 250 10 min 0,000 mm 503 W/m 9,6 C 23,9 C 19,3 km/h (3 Bft) 100 %
27.06.2014 13:30 24,8 C 24,5 C 24,8 C 38 % 1014,4 hPa 0,0 l/m 6,2 km/h (2 Bft) W-NW 290 10 min 0,000 mm 809 W/m 9,5 C 24,8 C 22,5 km/h (4 Bft) 100 %
27.06.2014 13:40 25,3 C 24,8 C 25,3 C 36 % 1014,4 hPa 0,0 l/m 5,4 km/h (1 Bft) W-NW 282 10 min 0,000 mm 816 W/m 9,1 C 25,3 C 14,5 km/h (3 Bft) 100 %
27.06.2014 13:50 25,6 C 25,3 C 25,6 C 36 % 1014,3 hPa 0,0 l/m 3,9 km/h (1 Bft) S-SO 168 10 min 0,000 mm 912 W/m 9,4 C 25,6 C 14,5 km/h (3 Bft) 100 %
27.06.2014 14:00 26,1 C 25,6 C 26,1 C 34 % 1014,4 hPa 0,0 l/m 6,2 km/h (2 Bft) W 266 10 min 0,508 mm 446 W/m 9,0 C 26,1 C 17,7 km/h (3 Bft) 100 %
27.06.2014 14:10 25,8 C 25,8 C 26,1 C 35 % 1014,3 hPa 0,0 l/m 5,5 km/h (1 Bft) NW 304 10 min 0,000 mm 860 W/m 9,2 C 25,8 C 16,1 km/h (3 Bft) 100 %
27.06.2014 14:20 25,9 C 25,8 C 25,9 C 34 % 1014,3 hPa 0,0 l/m 8,6 km/h (2 Bft) S 184 10 min 0,000 mm 844 W/m 8,8 C 25,4 C 22,5 km/h (4 Bft) 100 %
27.06.2014 14:30 26,1 C 25,9 C 26,1 C 32 % 1014,3 hPa 0,0 l/m 7,8 km/h (2 Bft) SW 215 10 min 0,000 mm 870 W/m 8,1 C 25,8 C 19,3 km/h (3 Bft) 100 %
27.06.2014 14:40 26,5 C 26,1 C 26,5 C 32 % 1014,4 hPa 0,0 l/m 9,0 km/h (2 Bft) W-SW 250 10 min 0,000 mm 986 W/m 8,4 C 26,0 C 24,1 km/h (4 Bft) 100 %
27.06.2014 14:50 26,7 C 26,4 C 26,7 C 32 % 1014,3 hPa 0,0 l/m 8,0 km/h (2 Bft) NW 306 10 min 0,000 mm 1009 W/m 8,6 C 26,4 C 17,7 km/h (3 Bft) 100 %
27.06.2014 15:00 26,7 C 26,7 C 26,9 C 32 % 1014,3 hPa 0,0 l/m 8,6 km/h (2 Bft) S-SW 208 10 min 0,635 mm 464 W/m 8,6 C 26,3 C 20,9 km/h (4 Bft) 100 %
27.06.2014 15:10 26,2 C 26,2 C 26,7 C 33 % 1014,1 hPa 0,0 l/m 7,3 km/h (2 Bft) NW 313 10 min 0,000 mm 564 W/m 8,6 C 26,0 C 20,9 km/h (4 Bft) 100 %
27.06.2014 15:20 26,1 C 26,1 C 26,2 C 33 % 1014,2 hPa 0,0 l/m 4,4 km/h (1 Bft) W-SW 246 10 min 0,000 mm 503 W/m 8,6 C 26,1 C 17,7 km/h (3 Bft) 100 %
27.06.2014 15:30 26,5 C 26,1 C 26,5 C 33 % 1014,0 hPa 0,0 l/m 9,3 km/h (2 Bft) NW 311 10 min 0,000 mm 898 W/m 8,9 C 25,9 C 20,9 km/h (4 Bft) 100 %
27.06.2014 15:40 26,8 C 26,5 C 26,8 C 33 % 1013,9 hPa 0,0 l/m 11,2 km/h (2 Bft) W-SW 256 10 min 0,000 mm 512 W/m 9,2 C 26,0 C 22,5 km/h (4 Bft) 100 %
27.06.2014 15:50 26,7 C 26,7 C 26,8 C 32 % 1013,8 hPa 0,0 l/m 7,5 km/h (2 Bft) W 277 10 min 0,000 mm 888 W/m 8,6 C 26,5 C 24,1 km/h (4 Bft) 100 %
27.06.2014 16:00 26,9 C 26,7 C 26,9 C 33 % 1013,8 hPa 0,0 l/m 8,4 km/h (2 Bft) SW 231 10 min 0,508 mm 506 W/m 9,3 C 26,5 C 20,9 km/h (4 Bft) 100 %
27.06.2014 16:10 26,5 C 26,5 C 26,9 C 33 % 1013,6 hPa 0,0 l/m 5,6 km/h (1 Bft) SW 214 10 min 0,000 mm 647 W/m 8,9 C 26,5 C 16,1 km/h (3 Bft) 100 %
27.06.2014 16:20 26,1 C 26,1 C 26,5 C 34 % 1013,6 hPa 0,0 l/m 3,0 km/h (1 Bft) SW 220 10 min 0,000 mm 661 W/m 9,0 C 26,1 C 9,7 km/h (2 Bft) 100 %
27.06.2014 16:30 26,2 C 26,1 C 26,2 C 34 % 1013,6 hPa 0,0 l/m 6,1 km/h (2 Bft) W 277 10 min 0,000 mm 497 W/m 9,1 C 26,2 C 22,5 km/h (4 Bft) 100 %
27.06.2014 16:40 26,6 C 26,2 C 26,6 C 33 % 1013,5 hPa 0,0 l/m 6,2 km/h (2 Bft) W-SW 252 10 min 0,000 mm 536 W/m 9,0 C 26,6 C 20,9 km/h (4 Bft) 100 %
27.06.2014 16:50 26,8 C 26,6 C 26,8 C 33 % 1013,5 hPa 0,0 l/m 5,0 km/h (1 Bft) NW 309 10 min 0,000 mm 577 W/m 9,2 C 26,8 C 12,9 km/h (3 Bft) 100 %
27.06.2014 17:00 26,9 C 26,8 C 26,9 C 34 % 1013,5 hPa 0,0 l/m 4,4 km/h (1 Bft) W-SW 257 10 min 0,407 mm 373 W/m 9,7 C 26,9 C 14,5 km/h (3 Bft) 100 %
27.06.2014 17:10 27,1 C 26,9 C 27,1 C 35 % 1013,3 hPa 0,0 l/m 3,1 km/h (1 Bft) NW 323 10 min 0,000 mm 529 W/m 10,3 C 27,1 C 17,7 km/h (3 Bft) 100 %
27.06.2014 17:20 26,8 C 26,8 C 27,1 C 34 % 1013,3 hPa 0,0 l/m 4,1 km/h (1 Bft) W 259 10 min 0,000 mm 497 W/m 9,6 C 26,8 C 12,9 km/h (3 Bft) 100 %
27.06.2014 17:30 26,5 C 26,5 C 26,8 C 34 % 1013,2 hPa 0,0 l/m 5,3 km/h (1 Bft) W 265 10 min 0,000 mm 262 W/m 9,3 C 26,5 C 17,7 km/h (3 Bft) 100 %
27.06.2014 17:40 26,2 C 26,2 C 26,5 C 36 % 1013,1 hPa 0,0 l/m 2,4 km/h (1 Bft) W-SW 253 10 min 0,000 mm 267 W/m 9,9 C 26,2 C 9,7 km/h (2 Bft) 99 %
27.06.2014 17:50 26,1 C 26,1 C 26,2 C 37 % 1013,1 hPa 0,0 l/m 1,1 km/h (1 Bft) W-NW 294 10 min 0,000 mm 246 W/m 10,3 C 26,1 C 6,4 km/h (2 Bft) 99 %
27.06.2014 18:00 25,9 C 25,9 C 26,1 C 37 % 1013,1 hPa 0,0 l/m 5,8 km/h (2 Bft) W-NW 290 10 min 0,254 mm 162 W/m 10,1 C 25,9 C 14,5 km/h (3 Bft) 98 %
27.06.2014 18:10 25,6 C 25,6 C 25,9 C 38 % 1013,0 hPa 0,0 l/m 2,7 km/h (1 Bft) W-NW 284 10 min 0,000 mm 234 W/m 10,2 C 25,6 C 9,7 km/h (2 Bft) 98 %
27.06.2014 18:20 25,5 C 25,5 C 25,6 C 38 % 1013,0 hPa 0,0 l/m 1,7 km/h (1 Bft) W-SW 254 10 min 0,000 mm 195 W/m 10,1 C 25,5 C 8,0 km/h (2 Bft) 97 %
27.06.2014 18:30 25,4 C 25,4 C 25,5 C 40 % 1012,9 hPa 0,0 l/m 2,0 km/h (1 Bft) W-NW 284 10 min 0,000 mm 185 W/m 10,8 C 25,4 C 9,7 km/h (2 Bft) 98 %
27.06.2014 18:40 25,3 C 25,3 C 25,4 C 39 % 1012,9 hPa 0,0 l/m 1,9 km/h (1 Bft) W-NW 284 0 min 0,000 mm 134 W/m 10,3 C 25,3 C 8,0 km/h (2 Bft) 98 %
27.06.2014 18:50 25,2 C 25,2 C 25,3 C 40 % 1012,9 hPa 0,0 l/m 1,0 km/h (0 Bft) W-NW 291 10 min 0,000 mm 348 W/m 10,6 C 25,2 C 9,7 km/h (2 Bft) 97 %
27.06.2014 19:00 25,2 C 25,1 C 25,2 C 40 % 1012,9 hPa 0,0 l/m 0,7 km/h (0 Bft) W-SW 240 10 min 0,177 mm 225 W/m 10,6 C 25,2 C 6,4 km/h (2 Bft) 98 %
27.06.2014 19:10 25,1 C 25,1 C 25,2 C 40 % 1013,0 hPa 0,0 l/m 5,0 km/h (1 Bft) W-SW 254 0 min 0,000 mm 144 W/m 10,5 C 25,1 C 17,7 km/h (3 Bft) 97 %
27.06.2014 19:20 25,0 C 25,0 C 25,1 C 39 % 1012,9 hPa 0,0 l/m 2,8 km/h (1 Bft) W-SW 256 0 min 0,000 mm 111 W/m 10,1 C 25,0 C 17,7 km/h (3 Bft) 97 %
27.06.2014 19:30 24,8 C 24,8 C 25,0 C 41 % 1012,7 hPa 0,0 l/m 3,8 km/h (1 Bft) S-SW 198 0 min 0,000 mm 109 W/m 10,6 C 24,8 C 14,5 km/h (3 Bft) 98 %
27.06.2014 19:40 24,4 C 24,4 C 24,8 C 43 % 1012,9 hPa 0,0 l/m 1,1 km/h (1 Bft) SW 236 0 min 0,000 mm 86 W/m 11,0 C 24,4 C 8,0 km/h (2 Bft) 98 %
27.06.2014 19:50 24,3 C 24,3 C 24,4 C 42 % 1012,9 hPa 0,0 l/m 1,2 km/h (1 Bft) W 273 0 min 0,000 mm 100 W/m 10,6 C 24,3 C 8,0 km/h (2 Bft) 98 %
27.06.2014 20:00 24,3 C 24,3 C 24,3 C 43 % 1012,8 hPa 0,0 l/m 1,4 km/h (1 Bft) SW 215 0 min 0,127 mm 58 W/m 10,9 C 24,3 C 8,0 km/h (2 Bft) 97 %
27.06.2014 20:10 24,0 C 24,0 C 24,3 C 43 % 1012,7 hPa 0,0 l/m 1,4 km/h (1 Bft) SW 225 0 min 0,000 mm 49 W/m 10,6 C 24,0 C 8,0 km/h (2 Bft) 97 %
27.06.2014 20:20 23,7 C 23,7 C 24,0 C 45 % 1012,7 hPa 0,0 l/m 0,0 km/h (0 Bft) SW 225 0 min 0,000 mm 33 W/m 11,1 C 23,7 C 1,6 km/h (1 Bft) 98 %
27.06.2014 20:30 23,2 C 23,2 C 23,7 C 46 % 1012,8 hPa 0,0 l/m 0,0 km/h (0 Bft) SW 225 0 min 0,000 mm 28 W/m 10,9 C 23,2 C 1,6 km/h (1 Bft) 97 %
27.06.2014 20:40 22,8 C 22,8 C 23,2 C 48 % 1012,8 hPa 0,0 l/m 0,0 km/h (0 Bft) SW 225 0 min 0,000 mm 32 W/m 11,2 C 22,8 C 1,6 km/h (1 Bft) 98 %
27.06.2014 20:50 22,4 C 22,4 C 22,8 C 48 % 1012,8 hPa 0,0 l/m 0,0 km/h (0 Bft) SW 225 0 min 0,000 mm 25 W/m 10,8 C 22,4 C 1,6 km/h (1 Bft) 97 %
27.06.2014 21:00 22,1 C 22,1 C 22,4 C 49 % 1012,9 hPa 0,0 l/m 0,0 km/h (0 Bft) SW 225 0 min 0,026 mm 14 W/m 10,9 C 22,1 C 1,6 km/h (1 Bft) 98 %
27.06.2014 21:10 21,9 C 21,9 C 22,1 C 50 % 1012,8 hPa 0,0 l/m 0,0 km/h (0 Bft) N 0 0 min 0,000 mm 14 W/m 11,0 C 21,9 C 0,0 km/h (0 Bft) 100 %
27.06.2014 21:20 21,6 C 21,6 C 21,9 C 52 % 1012,9 hPa 0,0 l/m 0,0 km/h (0 Bft) N 0 0 min 0,000 mm 11 W/m 11,3 C 21,6 C 0,0 km/h (0 Bft) 100 %
27.06.2014 21:30 21,1 C 21,1 C 21,6 C 52 % 1013,1 hPa 0,0 l/m 0,0 km/h (0 Bft) SW 225 0 min 0,000 mm 5 W/m 10,9 C 21,1 C 1,6 km/h (1 Bft) 100 %
27.06.2014 21:40 20,7 C 20,7 C 21,1 C 53 % 1013,2 hPa 0,0 l/m 0,0 km/h (0 Bft) SW 225 0 min 0,000 mm 0 W/m 10,8 C 20,7 C 3,2 km/h (1 Bft) 100 %
27.06.2014 21:50 20,3 C 20,3 C 20,7 C 55 % 1013,1 hPa 0,0 l/m 0,0 km/h (0 Bft) SW 225 0 min 0,000 mm 0 W/m 11,0 C 20,3 C 3,2 km/h (1 Bft) 99 %
27.06.2014 22:00 20,0 C 20,0 C 20,3 C 56 % 1013,3 hPa 0,0 l/m 0,0 km/h (0 Bft) SW 225 0 min 0,025 mm 0 W/m 11,0 C 20,0 C 1,6 km/h (1 Bft) 100 %
27.06.2014 22:10 19,7 C 19,7 C 20,0 C 56 % 1013,4 hPa 0,0 l/m 0,0 km/h (0 Bft) N 0 0 min 0,000 mm 0 W/m 10,7 C 19,7 C 0,0 km/h (0 Bft) 99 %
27.06.2014 22:20 19,4 C 19,4 C 19,8 C 57 % 1013,3 hPa 0,0 l/m 0,0 km/h (0 Bft) SW 225 0 min 0,000 mm 0 W/m 10,7 C 19,4 C 1,6 km/h (1 Bft) 100 %
27.06.2014 22:30 19,2 C 19,2 C 19,4 C 58 % 1013,1 hPa 0,0 l/m 0,0 km/h (0 Bft) N 0 0 min 0,000 mm 0 W/m 10,7 C 19,2 C 0,0 km/h (0 Bft) 100 %
27.06.2014 22:40 18,9 C 18,9 C 19,2 C 59 % 1013,1 hPa 0,0 l/m 0,0 km/h (0 Bft) N 0 0 min 0,000 mm 0 W/m 10,7 C 18,9 C 0,0 km/h (0 Bft) 99 %
27.06.2014 22:50 18,7 C 18,7 C 18,9 C 60 % 1013,1 hPa 0,0 l/m 0,0 km/h (0 Bft) SW 225 0 min 0,000 mm 0 W/m 10,8 C 18,7 C 3,2 km/h (1 Bft) 100 %
27.06.2014 23:00 18,3 C 18,3 C 18,7 C 61 % 1013,1 hPa 0,0 l/m 0,0 km/h (0 Bft) SW 225 0 min 0,051 mm 0 W/m 10,6 C 18,3 C 1,6 km/h (1 Bft) 100 %
27.06.2014 23:10 18,0 C 18,0 C 18,3 C 61 % 1013,2 hPa 0,0 l/m 0,0 km/h (0 Bft) SW 225 0 min 0,000 mm 0 W/m 10,4 C 18,0 C 1,6 km/h (1 Bft) 100 %
27.06.2014 23:20 17,8 C 17,8 C 18,0 C 63 % 1013,1 hPa 0,0 l/m 0,0 km/h (0 Bft) N 0 0 min 0,000 mm 0 W/m 10,7 C 17,8 C 0,0 km/h (0 Bft) 100 %
27.06.2014 23:30 17,5 C 17,5 C 17,8 C 64 % 1013,0 hPa 0,0 l/m 0,0 km/h (0 Bft) SW 225 0 min 0,000 mm 0 W/m 10,6 C 17,5 C 1,6 km/h (1 Bft) 99 %
27.06.2014 23:40 17,2 C 17,2 C 17,5 C 66 % 1013,1 hPa 0,0 l/m 0,0 km/h (0 Bft) SW 225 0 min 0,000 mm 0 W/m 10,8 C 17,2 C 3,2 km/h (1 Bft) 100 %
27.06.2014 23:50 17,0 C 17,0 C 17,2 C 66 % 1013,0 hPa 0,0 l/m 0,0 km/h (0 Bft) SW 225 0 min 0,000 mm 0 W/m 10,6 C 17,0 C 3,2 km/h (1 Bft) 100 %
_ Min-Zeit 05:40 05:40 05:40 14:30 19:30 - 00:00 - - - - - 05:30 05:40 02:30 01:10
Minimum _ 7,4 C 7,4 C 7,5 C 32 % 1012,7 hPa - 0,0 km/h (0 Bft) - - - - - 5,1 C 7,4 C 0,0 km/h (0 Bft) 89 %
_ Max-Zeit 17:10 17:10 17:10 05:40 08:50 00:00 15:40 - - 08:00 15:00 14:50 21:20 17:10 12:50 00:00
Maximum _ 27,1 C 26,9 C 27,1 C 86 % 1015,3 hPa 0,0 l/m 11,2 km/h
W-SW (2 Bft)
- - 10 min 0,635 mm 1009 W/m 11,3 C 27,1 C 25,7 km/h
SW (4 Bft)
100 %
Durchschnitt _ 18,3 C 18,1 C 18,4 C 58 % 1014,1 hPa #0,0 l/m 2,0 km/h (1 Bft) S-SW - #11:00 h #4,826 mm 408 W/m 8,7 C 18,3 C 7,8 km/h (2 Bft) 99 %
PRIVATE WETTERSTATION BILLIGHEIM-ALLFELD - www.neckar-odenwald-wetter.de - Holger Sonntag